FW5670 Weather Reports


time (UTC)temp
F
wind
direction
speed
knots
gust
knots
rain 1hr
in
rain 24hr
in
rain mn
in
humidity
%
barometer
mb
20260510190100 69 135 0.0 2.6 0.01 0.21 0.07 65 1012.1
20260510184558 70 131 0.0 2.6 0.01 0.25 0.07 64 1012.3
20260510183049 70 150 0.0 0.9 0.01 0.25 0.07 66 1012.4
20260510181603 68 0 0.0 0.0 0.01 0.25 0.07 77 1012.3
20260510180052 68 0 0.0 0.9 0.00 0.24 0.06 74 1012.1
20260510174557 69 0 0.0 0.9 0.00 0.24 0.06 71 1012.0
20260510173044 71 252 1.7 5.2 0.00 0.24 0.06 68 1012.0
20260510171557 71 40 0.9 5.2 0.00 0.24 0.06 72 1012.0
20260510170047 70 63 1.7 3.5 0.00 0.24 0.06 70 1012.1
20260510164538 70 42 1.7 6.1 0.00 0.24 0.06 70 1012.3
20260510163055 70 38 0.9 3.5 0.00 0.24 0.06 73 1012.4
20260510161548 69 95 0.0 3.5 0.00 0.24 0.06 72 1012.5
20260510160050 68 0 0.9 3.5 0.00 0.24 0.06 73 1012.4
20260510154553 67 0 0.0 3.5 0.00 0.24 0.06 79 1012.7
20260510153058 66 0 0.0 2.6 0.00 0.24 0.06 78 1012.7
20260510151552 64 0 0.9 1.7 0.00 0.24 0.06 81 1012.7
20260510150055 64 0 0.0 1.7 0.01 0.24 0.06 82 1012.8
20260510144558 62 72 0.0 2.6 0.01 0.24 0.06 87 1012.8
20260510143049 60 0 0.0 1.7 0.01 0.24 0.06 88 1012.8
20260510141552 59 143 0.9 2.6 0.01 0.24 0.06 89 1012.7
20260510140051 59 0 0.0 0.9 0.00 0.23 0.05 90 1012.5
20260510134552 58 0 0.0 0.9 0.00 0.23 0.05 91 1012.7
20260510133052 57 0 0.0 0.0 0.00 0.23 0.05 94 1012.7
20260510131548 55 0 0.0 0.0 0.00 0.23 0.05 93 1012.5
20260510130050 54 0 0.0 0.0 0.00 0.23 0.05 94 1012.3
20260510124548 53 0 0.0 0.0 0.00 0.23 0.05 94 1012.2
20260510123052 53 0 0.0 0.0 0.00 0.23 0.05 94 1012.2
20260510121548 52 0 0.0 0.0 0.01 0.23 0.05 94 1012.0
20260510120122 52 0 0.0 0.0 0.01 0.23 0.05 94 1011.7
20260510114551 52 0 0.0 0.0 0.01 0.24 0.05 94 1011.7
20260510113049 52 0 0.0 0.0 0.01 0.24 0.05 94 1011.7
20260510111551 52 0 0.0 0.0 0.00 0.23 0.04 94 1011.4
20260510110100 51 0 0.0 0.0 0.00 0.23 0.04 94 1011.2
20260510104548 51 0 0.0 0.0 0.00 0.23 0.04 94 1011.1
20260510103054 51 0 0.0 0.0 0.00 0.23 0.04 94 1011.1
20260510101601 51 0 0.0 0.0 0.01 0.23 0.04 94 1011.1
20260510100054 51 0 0.0 0.0 0.01 0.23 0.04 94 1011.1
20260510094555 51 0 0.0 0.0 0.01 0.23 0.04 94 1011.0
20260510093055 51 0 0.0 0.0 0.01 0.23 0.04 94 1010.9
20260510091551 51 0 0.0 0.0 0.00 0.22 0.03 93 1011.3
20260510090055 51 0 0.0 0.0 0.00 0.22 0.03 94 1011.2
20260510084603 51 0 0.0 0.0 0.00 0.22 0.03 94 1011.3
20260510083050 51 0 0.0 0.0 0.01 0.22 0.03 94 1011.3
20260510081557 51 0 0.0 0.0 0.01 0.22 0.03 93 1011.4
20260510080059 51 0 0.0 0.0 0.01 0.22 0.03 93 1011.4
20260510074555 51 0 0.0 0.0 0.01 0.22 0.03 94 1011.4
20260510073053 51 0 0.0 0.0 0.00 0.21 0.02 93 1010.4
20260510071549 51 0 0.0 0.0 0.00 0.21 0.02 93 1010.5
20260510070052 51 0 0.0 0.0 0.01 0.21 0.02 93 1010.6
20260510064546 52 0 0.0 0.0 0.01 0.22 0.02 93 1010.8
20260510063043 52 0 0.0 0.0 0.01 0.22 0.02 93 1010.7
20260510061552 52 0 0.0 0.0 0.01 0.22 0.02 93 1010.9
20260510060050 52 0 0.0 0.0 0.00 0.21 0.01 93 1010.7
20260510054549 52 0 0.0 0.0 0.01 0.21 0.01 93 1010.6
20260510053053 52 0 0.0 0.0 0.01 0.21 0.01 93 1010.5
20260510051549 52 0 0.0 0.0 0.01 0.21 0.01 93 1010.6
20260510050052 52 0 0.0 0.0 0.01 0.21 0.01 93 1010.6
20260510044549 52 0 0.0 0.0 0.01 0.20 0.00 93 1010.6
20260510043042 52 0 0.0 0.0 0.01 0.20 0.00 93 1010.7
20260510041545 52 0 0.0 0.0 0.01 0.20 0.00 93 1010.7
20260510040048 52 0 0.0 0.0 0.01 0.20 0.00 93 1010.7
20260510034550 52 0 0.0 0.0 0.00 0.19 0.19 93 1010.6
20260510033056 52 0 0.0 0.0 0.01 0.19 0.19 93 1010.3
20260510031549 52 0 0.0 0.0 0.01 0.19 0.19 93 1010.3
20260510030045 52 0 0.0 0.0 0.01 0.19 0.19 93 1010.5
20260510024545 51 0 0.0 0.0 0.01 0.19 0.19 93 1010.7
20260510023048 50 0 0.0 0.0 0.01 0.18 0.18 93 1010.6
20260510021630 50 0 0.0 0.0 0.01 0.18 0.18 93 1010.5
20260510020058 50 0 0.0 0.0 0.01 0.18 0.18 92 1010.6
20260510014555 50 0 0.0 0.0 0.01 0.18 0.18 92 1010.6
20260510013053 51 0 0.0 0.0 0.01 0.17 0.17 92 1010.4
20260510011542 51 0 0.0 0.0 0.01 0.17 0.17 92 1010.4
20260510010052 51 0 0.0 0.0 0.01 0.17 0.17 92 1010.1
20260510004548 52 0 0.0 0.0 0.02 0.17 0.17 92 1009.9
20260510003049 52 0 0.0 0.0 0.01 0.16 0.16 92 1010.0
20260510001544 53 0 0.0 0.0 0.02 0.16 0.16 92 1010.0
20260510000041 53 0 0.0 0.0 0.02 0.16 0.16 92 1010.0
20260509234540 53 0 0.0 0.0 0.01 0.15 0.15 92 1009.8
20260509233040 53 0 0.0 0.0 0.02 0.15 0.15 92 1009.9
20260509231549 53 0 0.0 0.0 0.01 0.14 0.14 91 1009.8
20260509230048 54 0 0.0 0.0 0.02 0.14 0.14 91 1009.7
20260509224549 54 0 0.0 0.0 0.02 0.13 0.13 92 1010.0
20260509223041 53 0 0.0 0.0 0.02 0.13 0.13 92 1009.9
20260509221549 53 0 0.0 0.0 0.02 0.12 0.12 91 1009.9
20260509220051 53 0 0.0 0.0 0.03 0.12 0.12 91 1010.0
20260509214549 53 0 0.0 0.0 0.02 0.11 0.11 91 1010.3
20260509213103 53 0 0.0 0.0 0.03 0.11 0.11 91 1010.4
20260509211549 53 0 0.0 0.0 0.02 0.10 0.10 90 1010.3
20260509210046 53 0 0.0 0.9 0.02 0.09 0.09 90 1010.2
20260509204541 54 0 0.0 0.9 0.02 0.09 0.09 90 1010.3
20260509203046 54 0 0.0 0.9 0.01 0.08 0.08 89 1010.6
20260509201541 54 0 0.0 0.9 0.02 0.08 0.08 88 1010.4
20260509200051 55 0 0.0 0.0 0.01 0.07 0.07 88 1010.7
20260509194553 55 0 0.0 0.0 0.02 0.07 0.07 87 1010.6
20260509193049 55 0 0.0 0.0 0.03 0.07 0.07 88 1010.6
20260509191557 55 0 0.0 0.0 0.03 0.06 0.06 87 1010.4